Tracking 25734 objects as of 26-May-2022
HD Live streaming from Space Station
objects crossing your sky now

IUS R/B(1)

Track IUS R/B(1) now!
10-day predictions


NORAD ID: 13971
Int'l Code: 1983-026D
Perigee: 259.5 km
Apogee: 20,831.2 km
Inclination: 25.8 °
Period: 364.9 minutes
Semi major axis: 16916 km
RCS: 12.7154 m2 (large)
Launch date: April 4, 1983
Source: United States (US)
Launch site: AIR FORCE EASTERN TEST RANGE (AFETR)

Note: This is a ROCKET BODY
aabbcc
Your satellite tracking list
Your tracking list is empty




NASA's NSSDC Master Catalog

Two Line Element Set (TLE):
1 13971U 83026D   22145.01616782  .00008021  00000-0  99521-3 0  9995
2 13971  25.8280 279.7988 6080430 282.7015  19.3246  3.94587778446719
Source of the keplerian elements: AFSPC